Weather History for KLVN - November, 2010

Change the Weather History Date:

Saturday, November 13, 2010

  Actual Average Record
Temperature  
Mean Temperature 31 °F -  
Max Temperature 32 °F 39 °F 71 °F (1999)
Min Temperature 30 °F 24 °F -4 °F (1986)
Degree Days  
Heating Degree Days 34    
Moisture  
Dew Point 30 °F    
Average Humidity 97    
Maximum Humidity 100    
Minimum Humidity 93    
Precipitation  
Precipitation 0.58 in - - ()
Sea Level Pressure  
Sea Level Pressure 29.95 in    
Wind  
Wind Speed 14 mph (North)    
Max Wind Speed 18 mph    
Max Gust Speed 26 mph    
Visibility 2 miles    
Events Snow    
Averages and records for this station are not official NWS values.
T = Trace of Precipitation, MM = Missing Value Source: NWS Daily Summary

Daily Weather History Graph

Daily Weather History Graph

Search for Another Location

Airport or City:

Trip Planner

Search our weather history database for the weather conditions in past years. The results will help you decide how hot, cold, wet, or windy it might be!

Date:

Astronomy

Nov. 13, 2010 Rise Set
Actual Time 7:06 AM CST 4:47 PM CST
Civil Twilight 6:35 AM CST 5:18 PM CST
Nautical Twilight 6:00 AM CST 5:53 PM CST
Astronomical Twilight 5:25 AM CST 6:27 PM CST
Moon 12:58 PM CST (11/13) No Moon Set
Length of Visible Light 10h 42m
Length of Day
9h 40m
Waxing Crescent, 51% of the Moon is Illuminated
Nov 13
Waxing Crescent
Nov 21
Full
Nov 28
Last Quarter
Dec 5
New
Dec 13
First Quarter

Hourly Weather History & Observations

Time (CST) Temp. Windchill Dew Point Humidity Pressure Visibility Wind Dir Wind Speed Gust Speed Precip Events Conditions
12:13 AM 30.2 °F 19.3 °F 30.2 °F 100% 30.25 in 1.8 mi NNE 15.0 mph 20.7 mph N/A Snow Light Snow
12:33 AM 30.2 °F 19.3 °F 30.2 °F 100% 30.24 in 1.8 mi NNE 15.0 mph - 0.01 in Snow Light Snow
12:55 AM 30.2 °F 19.8 °F 30.2 °F 100% 30.23 in 2.5 mi NE 13.8 mph 21.9 mph 0.02 in Snow Light Snow
1:33 AM 30.2 °F 19.8 °F 30.2 °F 100% 30.20 in 2.0 mi NE 13.8 mph 21.9 mph 0.01 in Snow Light Snow
1:55 AM 30.2 °F 18.9 °F 30.2 °F 100% 30.18 in 1.8 mi NNE 16.1 mph 25.3 mph 0.01 in Snow Light Snow
2:13 AM 30.2 °F 19.3 °F 30.2 °F 100% 30.16 in 2.5 mi NE 15.0 mph 21.9 mph N/A Snow Light Snow
2:33 AM 30.2 °F 18.5 °F 30.2 °F 100% 30.16 in 4.0 mi NNE 17.3 mph 20.7 mph N/A Snow Light Snow
2:55 AM 32.0 °F 21.2 °F 30.2 °F 93% 30.14 in 1.5 mi NNE 16.1 mph - 0.01 in Snow Light Snow
3:13 AM 30.2 °F 18.5 °F 30.2 °F 100% 30.12 in 1.8 mi NNE 17.3 mph 23.0 mph N/A Snow Light Snow
3:33 AM 30.2 °F 18.9 °F 30.2 °F 100% 30.11 in 1.5 mi NNE 16.1 mph 20.7 mph N/A Snow Light Snow
3:55 AM 30.2 °F 18.9 °F 30.2 °F 100% 30.10 in 1.0 mi NNE 16.1 mph 21.9 mph 0.01 in Snow Snow
4:13 AM 30.2 °F 18.9 °F 30.2 °F 100% 30.08 in 1.2 mi NNE 16.1 mph 26.5 mph 0.01 in Snow Snow
4:55 AM 30.2 °F 18.1 °F 30.2 °F 100% 30.05 in 3.0 mi NNE 18.4 mph 25.3 mph 0.03 in Snow Light Snow
5:13 AM 30.2 °F 19.8 °F 30.2 °F 100% 30.04 in 7.0 mi NNE 13.8 mph 20.7 mph N/A Snow Light Snow
5:33 AM 32.0 °F 22.5 °F 30.2 °F 93% 30.04 in 5.0 mi NNE 12.7 mph 21.9 mph 0.01 in Snow Light Snow
5:55 AM 30.2 °F 19.3 °F 30.2 °F 100% 30.02 in 2.0 mi NNE 15.0 mph 20.7 mph 0.04 in Snow Light Snow
6:13 AM 30.2 °F 20.2 °F 30.2 °F 100% 30.01 in 2.0 mi NNE 12.7 mph 23.0 mph 0.03 in Snow Light Snow
6:33 AM 30.2 °F 20.2 °F 30.2 °F 100% 30.00 in 3.0 mi NNE 12.7 mph 19.6 mph 0.05 in Snow Light Snow
6:55 AM 30.2 °F 19.8 °F 30.2 °F 100% 29.98 in 1.5 mi North 13.8 mph 20.7 mph 0.07 in Snow Light Snow
7:13 AM 30.2 °F 20.8 °F 30.2 °F 100% 29.98 in 3.0 mi NNE 11.5 mph 19.6 mph 0.03 in Snow Light Snow
7:33 AM 30.2 °F 20.2 °F 30.2 °F 100% 29.98 in 1.0 mi NNE 12.7 mph - 0.05 in Snow Light Snow
7:55 AM 30.2 °F 20.8 °F 30.2 °F 100% 29.97 in 0.5 mi North 11.5 mph 16.1 mph 0.07 in Snow Snow
8:13 AM 30.2 °F 21.3 °F 30.2 °F 100% 29.96 in 0.5 mi North 10.4 mph - 0.03 in Snow Heavy Snow
8:33 AM 30.2 °F 19.8 °F 30.2 °F 100% 29.95 in 0.8 mi NNE 13.8 mph - 0.07 in Snow Snow
8:55 AM 30.2 °F 20.8 °F 30.2 °F 100% 29.94 in 1.2 mi North 11.5 mph - 0.09 in   Overcast
9:13 AM 30.2 °F 21.3 °F 30.2 °F 100% 29.93 in 0.8 mi North 10.4 mph - 0.01 in Snow Snow
9:33 AM 30.2 °F 21.3 °F 30.2 °F 100% 29.92 in 1.8 mi North 10.4 mph - 0.02 in   Overcast
9:55 AM 30.2 °F 19.8 °F 30.2 °F 100% 29.91 in 0.5 mi North 13.8 mph - 0.05 in Snow Snow
10:13 AM 30.2 °F 21.3 °F 30.2 °F 100% 29.91 in 1.0 mi North 10.4 mph - 0.02 in Snow Light Snow
10:33 AM 30.2 °F 21.9 °F 30.2 °F 100% 29.90 in 1.8 mi North 9.2 mph - 0.04 in Snow Light Snow
10:55 AM 32.0 °F 22.5 °F 30.2 °F 93% 29.89 in 3.0 mi North 12.7 mph 16.1 mph 0.05 in   Overcast
11:13 AM 32.0 °F 22.5 °F 30.2 °F 93% 29.88 in 2.5 mi North 12.7 mph 18.4 mph N/A   Overcast
11:33 AM 32.0 °F 21.2 °F 30.2 °F 93% 29.86 in 2.0 mi North 16.1 mph 19.6 mph 0.01 in   Overcast
11:55 AM 32.0 °F 22.1 °F 30.2 °F 93% 29.85 in 2.0 mi North 13.8 mph 19.6 mph 0.04 in   Overcast
12:13 PM 32.0 °F 23.0 °F 30.2 °F 93% 29.84 in 3.0 mi North 11.5 mph 19.6 mph 0.02 in   Overcast
12:33 PM 32.0 °F 21.6 °F 30.2 °F 93% 29.83 in 4.0 mi North 15.0 mph - 0.03 in   Overcast
12:55 PM 32.0 °F 23.0 °F 30.2 °F 93% 29.82 in 3.0 mi North 11.5 mph - 0.04 in Snow Light Snow
1:33 PM 32.0 °F 22.5 °F 30.2 °F 93% 29.81 in 1.0 mi North 12.7 mph 18.4 mph 0.02 in Snow Light Snow
1:55 PM 32.0 °F 22.5 °F 30.2 °F 93% 29.80 in 1.0 mi North 12.7 mph 18.4 mph 0.04 in Snow Light Snow
2:13 PM 32.0 °F 22.5 °F 30.2 °F 93% 29.79 in 1.0 mi North 12.7 mph 18.4 mph N/A Snow Light Snow
2:33 PM 32.0 °F 23.0 °F 30.2 °F 93% 29.79 in 1.2 mi North 11.5 mph 18.4 mph 0.01 in Snow Light Snow
2:55 PM 32.0 °F 23.0 °F 30.2 °F 93% 29.78 in 1.0 mi North 11.5 mph 19.6 mph 0.01 in Snow Light Snow
3:13 PM 32.0 °F 22.1 °F 30.2 °F 93% 29.78 in 1.0 mi North 13.8 mph 20.7 mph N/A Snow Light Snow
3:53 PM 32.0 °F 21.2 °F 30.2 °F 93% 29.79 in 1.5 mi NNW 16.1 mph 20.7 mph N/A Snow Light Snow
4:13 PM 32.0 °F 21.2 °F 30.2 °F 93% 29.78 in 1.2 mi North 16.1 mph - N/A Snow Light Snow
4:33 PM 32.0 °F 21.2 °F 30.2 °F 93% 29.78 in 1.5 mi NNW 16.1 mph 19.6 mph N/A Snow Light Snow
4:53 PM 32.0 °F 22.5 °F 30.2 °F 93% 29.78 in 2.0 mi North 12.7 mph - N/A Snow Light Snow
5:13 PM 32.0 °F 22.1 °F 30.2 °F 93% 29.78 in 2.0 mi NNW 13.8 mph - N/A Snow Light Snow
5:33 PM 32.0 °F 23.0 °F 30.2 °F 93% 29.78 in 3.0 mi NNW 11.5 mph - N/A Snow Light Snow
5:53 PM 32.0 °F 23.0 °F 30.2 °F 93% 29.78 in 7.0 mi NNW 11.5 mph 17.3 mph N/A Snow Light Snow
6:13 PM 32.0 °F 22.5 °F 30.2 °F 93% 29.78 in 5.0 mi NNW 12.7 mph - N/A Snow Light Snow
6:33 PM 32.0 °F 23.6 °F 30.2 °F 93% 29.78 in 7.0 mi NNW 10.4 mph - N/A Snow Light Snow
6:53 PM 32.0 °F 23.6 °F 30.2 °F 93% 29.78 in 7.0 mi NW 10.4 mph - N/A Snow Light Snow
7:13 PM 32.0 °F 22.1 °F 30.2 °F 93% 29.77 in 7.0 mi NW 13.8 mph - N/A Snow Light Snow
7:33 PM 32.0 °F 22.5 °F 30.2 °F 93% 29.77 in 10.0 mi NW 12.7 mph - N/A   Overcast
7:53 PM 32.0 °F 22.1 °F 30.2 °F 93% 29.77 in 10.0 mi NW 13.8 mph 19.6 mph N/A   Overcast
8:13 PM 32.0 °F 23.0 °F 30.2 °F 93% 29.77 in 7.0 mi NW 11.5 mph - N/A   Overcast
8:33 PM 32.0 °F 23.0 °F 30.2 °F 93% 29.77 in 3.0 mi NW 11.5 mph - N/A Snow Light Snow
8:53 PM 30.2 °F 20.2 °F 30.2 °F 100% 29.77 in 2.5 mi NW 12.7 mph 16.1 mph N/A Snow Light Snow
9:13 PM 32.0 °F 22.1 °F 30.2 °F 93% 29.77 in 3.0 mi NW 13.8 mph - N/A Snow Light Snow
9:33 PM 32.0 °F 20.8 °F 30.2 °F 93% 29.77 in 10.0 mi WNW 17.3 mph - N/A   Overcast
9:53 PM 32.0 °F 21.2 °F 30.2 °F 93% 29.77 in 5.0 mi NW 16.1 mph - N/A   Overcast
10:13 PM 32.0 °F 21.6 °F 30.2 °F 93% 29.78 in 5.0 mi NW 15.0 mph 21.9 mph N/A   Overcast
10:33 PM 32.0 °F 22.1 °F 30.2 °F 93% 29.78 in 7.0 mi WNW 13.8 mph - N/A Snow Light Snow
10:53 PM 32.0 °F 21.2 °F 30.2 °F 93% 29.77 in 5.0 mi NW 16.1 mph - N/A Snow Light Snow
11:13 PM 32.0 °F 22.1 °F 30.2 °F 93% 29.78 in 4.0 mi NW 13.8 mph - N/A Snow Light Snow
11:33 PM 32.0 °F 21.6 °F 30.2 °F 93% 29.77 in 3.0 mi WNW 15.0 mph - N/A Snow Light Snow
11:53 PM 32.0 °F 21.6 °F 30.2 °F 93% 29.77 in 3.0 mi WNW 15.0 mph - N/A Snow Light Snow